When you browse on this site, cookies collect data to enhance your experience and personalize the content and advertising you see.
Visit our Privacy Policy to learn more. By continuing to use the site, you agree to this use of cookies and data.
  • In Spain
  • List of Countries
  • For 7 days
  • Water Temperature
  • Weather Map
  • Weather Widgets
  • user-avatar
    Login

    Hourly Weather Aveiro

    Today, 28 May, Thursday

    Time Temperature Precipitation Wind Pressure Humidity
    00:00 +23°C° 0 mm 1 mps 763 mmHg 56%
    01:00 +23°C° 0 mm 1 mps 763 mmHg 55%
    02:00 +23°C° 0 mm 1 mps 763 mmHg 55%
    03:00 +23°C° 0 mm 1 mps 763 mmHg 55%
    04:00 +23°C° 0 mm 2 mps 763 mmHg 56%
    05:00 +23°C° 0 mm 2 mps 763 mmHg 56%
    06:00 +26°C° 0 mm 2 mps 763 mmHg 49%
    07:00 +28°C° 0 mm 2 mps 763 mmHg 42%
    08:00 +31°C° 0 mm 1 mps 763 mmHg 35%
    09:00 +32°C° 0 mm 2 mps 763 mmHg 32%
    10:00 +35°C° 0 mm 2 mps 763 mmHg 30%
    11:00 +36°C° 0 mm 2 mps 763 mmHg 28%
    12:00 +34°C° 0 mm 3 mps 762 mmHg 32%
    13:00 +33°C° 0 mm 4 mps 762 mmHg 37%
    14:00 +30°C° 0 mm 4 mps 762 mmHg 42%
    15:00 +29°C° 0 mm 4 mps 761 mmHg 43%
    16:00 +29°C° 0 mm 4 mps 761 mmHg 44%
    17:00 +28°C° 0 mm 4 mps 761 mmHg 46%
    18:00 +26°C° 0 mm 4 mps 761 mmHg 51%
    19:00 +25°C° 0 mm 4 mps 761 mmHg 56%
    20:00 +23°C° 0 mm 4 mps 762 mmHg 61%
    21:00 +22°C° 0 mm 3 mps 762 mmHg 63%
    22:00 +22°C° 0 mm 3 mps 761 mmHg 65%
    23:00 +21°C° 0 mm 2 mps 761 mmHg 67%

    Tomorrow, 29 May, Friday

    Time Temperature Precipitation Wind Pressure Humidity
    00:00 +21°C° 0 mm 2 mps 761 mmHg 66%
    01:00 +21°C° 0 mm 2 mps 761 mmHg 66%
    02:00 +21°C° 0 mm 2 mps 760 mmHg 66%
    03:00 +22°C° 0 mm 1 mps 760 mmHg 66%
    04:00 +22°C° 0 mm 1 mps 760 mmHg 66%
    05:00 +22°C° 0 mm 1 mps 760 mmHg 66%
    06:00 +25°C° 0 mm 1 mps 760 mmHg 58%
    07:00 +28°C° 0 mm 1 mps 760 mmHg 50%
    08:00 +29°C° 0 mm 0 mps 760 mmHg 43%
    09:00 +31°C° 0 mm 1 mps 760 mmHg 40%
    10:00 +32°C° 0 mm 2 mps 760 mmHg 37%
    11:00 +34°C° 0 mm 3 mps 759 mmHg 34%
    12:00 +33°C° 0 mm 3 mps 759 mmHg 37%
    13:00 +32°C° 0 mm 4 mps 758 mmHg 40%
    14:00 +30°C° 0 mm 5 mps 758 mmHg 43%
    15:00 +30°C° 0 mm 5 mps 758 mmHg 46%
    16:00 +29°C° 0 mm 5 mps 758 mmHg 50%
    17:00 +28°C° 0 mm 5 mps 757 mmHg 53%
    18:00 +26°C° 0 mm 4 mps 757 mmHg 60%
    19:00 +23°C° 0 mm 4 mps 758 mmHg 68%
    20:00 +21°C° 0 mm 3 mps 758 mmHg 75%
    21:00 +21°C° 0 mm 3 mps 758 mmHg 76%
    22:00 +21°C° 0 mm 3 mps 758 mmHg 77%
    23:00 +20°C° 0 mm 3 mps 758 mmHg 78%

    Day after tomorrow, 30 May, Saturday

    Time Temperature Precipitation Wind Pressure Humidity
    00:00 +20°C° 0 mm 2 mps 758 mmHg 79%
    01:00 +20°C° 0 mm 2 mps 757 mmHg 79%
    02:00 +20°C° 0 mm 2 mps 757 mmHg 80%
    03:00 +21°C° 0 mm 1 mps 757 mmHg 78%
    04:00 +21°C° 0 mm 1 mps 757 mmHg 77%
    05:00 +22°C° 0 mm 1 mps 757 mmHg 76%
    06:00 +24°C° 0 mm 1 mps 757 mmHg 67%
    07:00 +27°C° 0 mm 1 mps 757 mmHg 59%
    08:00 +30°C° 0 mm 1 mps 757 mmHg 50%
    09:00 +31°C° 0 mm 2 mps 757 mmHg 47%
    10:00 +32°C° 0 mm 2 mps 757 mmHg 44%
    11:00 +34°C° 0 mm 3 mps 757 mmHg 40%
    12:00 +33°C° 0 mm 3 mps 757 mmHg 44%
    13:00 +31°C° 0 mm 3 mps 756 mmHg 47%
    14:00 +30°C° 0 mm 4 mps 756 mmHg 50%
    15:00 +29°C° 0 mm 3 mps 756 mmHg 52%
    16:00 +28°C° 0 mm 3 mps 756 mmHg 55%
    17:00 +27°C° 0 mm 3 mps 755 mmHg 58%
    18:00 +26°C° 0 mm 3 mps 756 mmHg 62%
    19:00 +24°C° 0 mm 2 mps 756 mmHg 67%
    20:00 +23°C° 0 mm 2 mps 756 mmHg 71%
    21:00 +23°C° 0 mm 2 mps 756 mmHg 71%
    22:00 +21°C° 0 mm 2 mps 756 mmHg 71%
    23:00 +21°C° 0 mm 2 mps 756 mmHg 71%

    31 May, Sunday

    Time Temperature Precipitation Wind Pressure Humidity
    00:00 +21°C° 0 mm 2 mps 756 mmHg 70%
    01:00 +21°C° 0 mm 2 mps 755 mmHg 70%
    02:00 +21°C° 0 mm 2 mps 755 mmHg 69%
    03:00 +22°C° 0.4 mm 1 mps 755 mmHg 73%
    04:00 +22°C° 0.4 mm 1 mps 755 mmHg 76%
    05:00 +21°C° 0.4 mm 1 mps 755 mmHg 80%
    06:00 +23°C° 0.4 mm 1 mps 756 mmHg 77%
    07:00 +24°C° 0.4 mm 1 mps 756 mmHg 74%
    08:00 +23°C° 0.4 mm 0 mps 756 mmHg 71%
    09:00 +27°C° 0.3 mm 1 mps 756 mmHg 62%
    10:00 +30°C° 0.3 mm 1 mps 756 mmHg 52%
    11:00 +32°C° 0.3 mm 1 mps 756 mmHg 43%
    12:00 +31°C° 0.3 mm 3 mps 756 mmHg 47%
    13:00 +29°C° 0.3 mm 4 mps 756 mmHg 51%
    14:00 +28°C° 0.3 mm 5 mps 755 mmHg 55%
    15:00 +26°C° 1.8 mm 4 mps 755 mmHg 65%
    16:00 +25°C° 1.8 mm 3 mps 756 mmHg 75%
    17:00 +23°C° 1.8 mm 1 mps 756 mmHg 85%
    18:00 +22°C° 0.1 mm 1 mps 756 mmHg 87%
    19:00 +21°C° 0.1 mm 1 mps 757 mmHg 89%
    20:00 +21°C° 0.1 mm 1 mps 757 mmHg 90%
    21:00 +21°C° 0 mm 1 mps 757 mmHg 90%
    22:00 +20°C° 0 mm 1 mps 758 mmHg 90%
    23:00 +20°C° 0 mm 1 mps 758 mmHg 90%

    1 June, Monday

    Time Temperature Precipitation Wind Pressure Humidity
    00:00 +20°C° 0 mm 1 mps 757 mmHg 89%
    01:00 +20°C° 0 mm 1 mps 757 mmHg 89%
    02:00 +20°C° 0 mm 1 mps 757 mmHg 88%
    03:00 +20°C° 0 mm 1 mps 757 mmHg 87%
    04:00 +20°C° 0 mm 1 mps 757 mmHg 87%
    05:00 +18°C° 0 mm 0 mps 757 mmHg 86%
    06:00 +21°C° 0 mm 0 mps 758 mmHg 77%
    07:00 +23°C° 0 mm 0 mps 758 mmHg 67%
    08:00 +26°C° 0 mm 0 mps 758 mmHg 58%
    09:00 +29°C° 0 mm 1 mps 758 mmHg 54%
    10:00 +30°C° 0 mm 1 mps 758 mmHg 50%
    11:00 +31°C° 0 mm 2 mps 758 mmHg 45%
    12:00 +31°C° 0 mm 3 mps 758 mmHg 47%
    13:00 +30°C° 0 mm 3 mps 757 mmHg 48%
    14:00 +30°C° 0 mm 4 mps 757 mmHg 50%
    15:00 +28°C° 0 mm 4 mps 757 mmHg 54%
    16:00 +27°C° 0 mm 4 mps 757 mmHg 58%
    17:00 +26°C° 0 mm 4 mps 757 mmHg 63%
    18:00 +24°C° 0 mm 3 mps 757 mmHg 68%
    19:00 +22°C° 0 mm 3 mps 757 mmHg 73%
    20:00 +21°C° 0 mm 2 mps 758 mmHg 78%
    21:00 +20°C° 0 mm 2 mps 758 mmHg 78%
    22:00 +20°C° 0 mm 2 mps 757 mmHg 79%
    23:00 +21°C° 0 mm 1 mps 757 mmHg 79%

    2 June, Tuesday

    Time Temperature Precipitation Wind Pressure Humidity
    00:00 +20°C° 0 mm 1 mps 757 mmHg 81%
    01:00 +20°C° 0 mm 1 mps 757 mmHg 83%
    02:00 +19°C° 0 mm 1 mps 756 mmHg 85%
    03:00 +20°C° 0 mm 1 mps 756 mmHg 85%
    04:00 +20°C° 0 mm 1 mps 756 mmHg 84%
    05:00 +18°C° 0 mm 0 mps 756 mmHg 84%
    06:00 +22°C° 0 mm 1 mps 756 mmHg 75%
    07:00 +24°C° 0 mm 1 mps 756 mmHg 67%
    08:00 +27°C° 0 mm 1 mps 756 mmHg 58%
    09:00 +27°C° 0 mm 2 mps 756 mmHg 55%
    10:00 +28°C° 0 mm 2 mps 756 mmHg 52%
    11:00 +29°C° 0 mm 3 mps 756 mmHg 49%
    12:00 +29°C° 0 mm 3 mps 755 mmHg 51%
    13:00 +28°C° 0 mm 4 mps 755 mmHg 52%
    14:00 +28°C° 0 mm 4 mps 754 mmHg 53%
    15:00 +26°C° 0 mm 3 mps 754 mmHg 58%
    16:00 +25°C° 0 mm 3 mps 754 mmHg 63%
    17:00 +24°C° 0 mm 3 mps 754 mmHg 68%
    18:00 +21°C° 0 mm 2 mps 754 mmHg 75%
    19:00 +20°C° 0 mm 2 mps 754 mmHg 83%
    20:00 +19°C° 0 mm 1 mps 754 mmHg 91%
    21:00 +19°C° 0 mm 1 mps 754 mmHg 91%
    22:00 +19°C° 0 mm 1 mps 753 mmHg 91%
    23:00 +19°C° 0 mm 1 mps 753 mmHg 91%
    Show more